Weather in Lower Lemington

United Kingdom     52°00′22″N   1°41′14″W
temp.,
°C
wind,
m/s
gust,
m/s
humid.,
%
clouds,
%
prec.,
mm/h
press.,
hPa
HPBL,
m
21 april, wed
wed2101:00+6nne119294 0.1 101911
04:00+6nne239494 0.0 101941
07:00+5ne399829 0.0 1020251
10:00+10ene787964 0.0 1022904
13:00+10ene7872100 0.1 10231105
16:00+10ene5769100 0.0 10231218
19:00+8ene587090 0.0 1024680
22:00+3ene512835 0.0 1026297
22 april, thu
thu2201:000ene37935 0.0 1027128
04:00−1ene24935 0.0 102763
07:000ene26885 0.0 1028171
10:00+7ene45605 0.0 1029638
13:00+11e45505 0.0 10281000
16:00+12e45535 0.0 10281129
19:00+10e36745 0.0 1028181
22:00+4e33885 0.0 103029
23 april, fri
fri2301:00+2se22901 0.0 103013
04:00+1ese22880 0.0 103010
07:00+2e22840 0.0 103140
10:00+9e57600 0.0 1031513
13:00+12ese56501 0.0 1030927
16:00+13ese56500 0.0 10291092
19:00+10e477294 0.0 1029224
22:00+4ese3973100 0.0 1031136
24 april, sat
sat2401:00+2ese3970100 0.0 1031153
04:00+2ese3977100 0.0 1030155
07:00+4e31078100 0.0 1030256
10:00+8e5971100 0.0 1030497
13:00+11e6863100 0.0 1029963
16:00+12e6864100 0.0 10281109
19:00+10e5976100 0.0 1029648
22:00+6e3991100 0.0 1030176
25 april, sun
sun2501:00+3e310945 0.0 1030181
04:00+1ene26940 0.0 1030104
07:00+3ene411950 0.0 1029292
10:00+9e69660 0.0 1029734
13:00+12e78621 0.0 10281132
16:00+13e78626 0.0 10261319
19:00+11ene69742 0.0 1025723
22:00+5e411945 0.0 1026265